Miscellaneous Local Product
Issued by NWS Hastings, NE

Home | Current Version | Previous Version | Graphics & Text | Print | Product List | Glossary On
Versions: 1 2 3 4 5 6 7 8 9 10 11 12 13 14 15 16 17 18 19 20 21 22 23 24 25 26 27 28 29 30 31 32 33 34 35 36 37 38 39 40 41 42 43 44 45 46 47 48 49 50
000
AXUS43 KGID 280902
MISGRI

GID CWA HOURLY WEATHER ROUNDUP
NATIONAL WEATHER SERVICE HASTINGS NE
400 AM CDT THU JUL 28 2016

NOTE: "FAIR" INDICATES FEW OR NO CLOUDS BELOW 12,000 FEET WITH NO
SIGNIFICANT WEATHER AND/OR OBSTRUCTIONS TO VISIBILITY.

...SOUTH CENTRAL NEBRASKA...

CITY           SKY/WX    TMP DP  RH WIND       PRES   REMARKS
GRAND ISLAND   CLEAR     63  61  93 W6        30.04F
HASTINGS       CLEAR     64  61  90 CALM      30.04F
KEARNEY        CLEAR     63   7  11 N5        30.05S
ORD            CLEAR     60  58  92 NW6       30.05F
YORK           CLEAR     64  63  94 CALM      30.02F
AURORA         CLEAR     63  62  97 NW5       30.02F
LEXINGTON      CLEAR     63  61  93 NW5       30.07F
HOLDREGE       CLEAR     64  62  94 CALM      30.06S
HEBRON         PTCLDY    68  65  89 CALM      30.00F

...NEBRASKA PANHANDLE...

CITY           SKY/WX    TMP DP  RH WIND       PRES   REMARKS
CHADRON        MOCLDY    65  61  87 E6        30.14F
ALLIANCE       CLEAR     57  54  89 NE3       30.14S
SCOTTSBLUFF    CLEAR     62  58  86 E9        30.13F
SIDNEY         CLOUDY    61  59  93 CALM      30.15F

...WESTERN AND NORTH CENTRAL NEBRASKA...

CITY           SKY/WX    TMP DP  RH WIND       PRES   REMARKS
VALENTINE      CLEAR     56  54  93 MISG      30.11F
AINSWORTH      CLEAR     58  57  98 NW5       30.10S
ONEILL         CLEAR     62  61  95 CALM      30.08R
BROKEN BOW     CLEAR     59  58  96 CALM      30.07F
IMPERIAL       CLOUDY    67  62  84 SW15      30.07F
NORTH PLATTE   MOCLDY    62  60  93 CALM      30.10S
MCCOOK         PTCLDY    68  65  90 N6        30.11S

...EASTERN NEBRASKA...

CITY           SKY/WX    TMP DP  RH WIND       PRES   REMARKS
NORFOLK        CLEAR     67  63  87 N3        30.04R
SO SIOUX CITY  CLEAR     71  63  75 N8        30.00F
TEKAMAH        CLOUDY    70  66  87 N9        29.98F
COLUMBUS       CLEAR     66  57  72 NW3       30.03R
ALBION         CLEAR     63  60  88 N6        30.06R
OMAHA EPPLEY   PTCLDY    72  68  87 N3        29.97F
OFFUTT AFB     PTCLDY    73  69  87 NE7       29.96F
MILLARD        CLOUDY    73  68  83 CALM      29.96F
LINCOLN        CLOUDY    70  63  78 NW5       30.00S
NEBRASKA CITY  CLEAR     70  70  99 NW6       29.97S
BEATRICE       CLOUDY    69  66  91 SW3       29.99F
FALLS CITY     CLEAR     70  69  97 NW5       29.95S

...NORTHERN KANSAS...

CITY           SKY/WX    TMP DP  RH WIND       PRES   REMARKS
GOODLAND       PTCLDY    62  59  90 CALM      30.15R
HILL CITY      CLOUDY    68  66  93 N5        30.05F
NORTON         CLOUDY    70  64  83 W5        30.07R
SMITH CENTER   CLEAR     70  64  83 N5        30.03S
BELOIT         CLEAR     68  66  94 CALM      29.99F
HAYS           CLOUDY    73  61  64 SW5G37    30.03F THUNDER
RUSSELL        CLOUDY    73  70  90 E5        30.00F
CONCORDIA      PTCLDY    71  66  84 N5        30.00F
SALINA         MOCLDY    76  69  79 CALM      29.98F
TOPEKA         PTCLDY    72  69  90 CALM      29.95S



USA.gov is the U.S. government's official web portal to all federal, state and local government web resources and services.